TITAN 3C TRANSTAGE DEB, 1964

Orbit data source: Space-Track

TITAN 3C TRANSTAGE DEB, 1964 is space debris in LEO originally from a launch on Fri, 15 Oct 1965 UTC launched from the Air Force Eastern Test Range (AFETR). Debris objects in space refer to the collection of defunct objects orbiting the Earth. Examples of debris include non-operational satellites, rocket bodies, and fragments generated from explosions, collisions, or faulty payload assembly.

Loading next visibility...
Identifier
1964, 1965-082GZ
Orbit
LEO
Country
Flag of USUS
Related business
Manufacturer
Unknown
Mission
Spacecraft
Bus & Motor
Unknown
Mass
Unknown
Launch date (UTC)
1965-10-15 (60 years ago)
Launch vehicle
Unknown
Launch site
Air Force Eastern Test Range (AFETR)
Object type
Payload
Rocket body
Debris
Shape & HBR
Unknown shape, 0.1 m
Radar Cross Section
Small (<0.1 m²)

Expand to show TLE details & history
Last TLE update: 21 hours ago

TLE from 21 hours ago
0 TITAN 3C TRANSTAGE DEB
1 01964U 65082GZ  26035.64677200  .00002863  00000-0  99495-3 0  9997
2 01964  32.1988 165.3349 0174627 167.6855 192.8123 14.26038337 98717
Epoch: 2026-02-04T15:31Z
TLE epoch observation values (Epoch: 2026-02-04T15:31:21.100Z)
Latitude
-0°
Longitude
157.68662°
Altitude
926.071 km
Speed
7.328 km/s
True Right ascension
11h 01m 20s
True Declination
0° 00' 00"
Sunlit
Object was in full shadow at epoch
Visualization orbit readout
Latitude
Unknown
Longitude
Unknown
Altitude
Unknown
Speed
Unknown
Apparent Right ascension
Unknown
Apparent Declination
Unknown
Sunlit
N/A
Visualization observer readout
Local Sidereal Time
14:56:46
Azimuth
Unknown
Elevation
Unknown
Doppler factor
Unknown
Orbital elements
Apogee altitude
934.03 km
Perigee altitude
683.032 km
Semi-major axis
7,186.668 km
Eccentricity
0.01746
Inclination
32.1988°
RAAN
165.3349°
Arg. of periapsis
167.6855°
True anomaly
192.37781°
Mean anomaly
192.8123°
Eccentric anomaly
192.59414°
Mean motion
3.56247 °/min
Orbital period
101.05 mins
BSTAR
0.00099495

Documentation

Showing up to 5 results
|